Flag for Turkmenistan Weather past 2 weeks in Ashgabat, Turkmenistan

Now
37 °F

Sprinkles. Mostly cloudy.


Feels Like: 35 °F
Forecast: 29 / 41 °F
Wind: 3 mph from Northwest

Location: Ashgabat

Current Time: Jan 31, 2015 at 12:34:55 PM

Latest Report: Jan 31, 2015 at 12:00 PM


Visibility: 1 mi

Pressure: 30.01 "Hg

Humidity: 93%

Dew point: 36 °F

Location of AshgabatLocation

Historic Weather in Ashgabat — Graph

°F

Ashgabat temperature yesterday

Maximum temperature yesterday: 52 °F (at 3:00 PM)
Minimum temperature yesterday: 37 °F (at 1:00 AM)
Average temperature yesterday: 44 °F

Past Weeks' High & Low Weather Summary

 TemperatureHumidityPressure
High54 °F (Jan 16, 3:00 PM)100% (Jan 16, 11:00 AM)30.60 "Hg (Jan 16, 11:00 AM)
Low23 °F (Jan 26, 5:00 AM)40% (Jan 22, 2:00 PM)29.86 "Hg (Jan 29, 2:00 PM)
Average36 °F84%30.25 "Hg
* Reported Jan 16 11:00 AM — Jan 31 11:30 AM, Ashgabat, Weather by CustomWeather, © 2014

Note: Actual official high and low records may vary slightly from our data, if they occured in-between our weather recording intervals... More about our weather records

Advertising

Ashgabat weather history for previous 24 hours

 ConditionsComfort  
Time TempWeatherWind HumidityBarometerVisibility
11:30 AM
Jan 31
37 °FSprinkles. Mostly cloudy.3 mph93%30.01 "Hg2 mi
11:00 AM37 °FSprinkles. Mostly cloudy.3 mph93%30.01 "Hg2 mi
10:30 AM37 °FRain showers. More clouds than sun.1 mph93%30.01 "Hg1 mi
10:00 AM37 °FLight rain. Overcast.No wind93%30.01 "Hg2 mi
9:30 AM37 °FRain showers. More clouds than sun.3 mph93%30.01 "Hg2 mi
9:00 AM37 °FSprinkles. Overcast.3 mph93%30.01 "Hg3 mi
8:00 AM37 °FMostly cloudy.3 mph87%29.98 "Hg5 mi
7:30 AM39 °FMostly cloudy.3 mph81%29.95 "Hg6 mi
7:00 AM37 °FMostly cloudy.3 mph87%29.98 "Hg6 mi
6:30 AM37 °FMostly cloudy.3 mph87%29.98 "Hg5 mi
6:00 AM37 °FMostly cloudy.6 mph87%29.98 "Hg6 mi
5:30 AM39 °FMostly cloudy.3 mph81%29.98 "Hg6 mi
5:00 AM39 °FMostly cloudy.3 mph87%29.98 "Hg5 mi
4:00 AM39 °FPassing clouds.6 mph87%30.01 "Hg4 mi
3:00 AM41 °FPassing clouds.1 mph87%30.01 "Hg4 mi
2:00 AM41 °FPassing clouds.3 mph87%30.04 "Hg4 mi
1:00 AM41 °FPassing clouds.No wind87%30.04 "Hg4 mi
12:00 AM41 °FPassing clouds.1 mph87%30.07 "Hg4 mi
11:00 PM
Jan 30
43 °FPassing clouds.1 mph81%30.07 "Hg4 mi
10:00 PM43 °FPartly cloudy.No wind81%30.07 "Hg5 mi
9:00 PM45 °FPassing clouds.No wind76%30.09 "Hg5 mi
8:00 PM45 °FPassing clouds.1 mph76%30.09 "Hg6 mi
7:00 PM45 °FPartly sunny.3 mph76%30.07 "Hg6 mi
6:00 PM48 °FPartly sunny.3 mph66%30.07 "HgN/A
5:00 PM50 °FPartly sunny.6 mph58%30.07 "HgN/A
4:00 PM52 °FPartly sunny.6 mph54%30.04 "HgN/A
3:00 PM52 °FBroken clouds.1 mph50%30.04 "HgN/A
2:00 PM48 °FBroken clouds.3 mph58%30.07 "HgN/A
1:00 PM48 °FBroken clouds.6 mph58%30.07 "HgN/A
12:00 PM45 °FBroken clouds.8 mph66%30.09 "Hg5 mi
Weather by CustomWeather, © 2014

See weather overviewHow to use our weather pages